EWG6RA EDDH-ENBR

Flight info

Callsign EWG6RA
Flight time 1h 32m
Altitude 38000
Route ELSOB Y348 OMWEG DCT BADOS DCT GIKOG DCT ATTUS P992 LINVI DCT BADAB
Aircraft A319/M-SDE3FGHIRWY/LB1

Departure

Time 2026-05-06 14:57
Airport Hamburg Helmut Schmidt Airport (EDDH)

Arrival

Time 2026-05-06 16:29
Airport Bergen Airport, Flesland (ENBR)
Time Latitude Longitude Altitude Speed Heading
2026-05-06 13:57 53.63206 10.00364 48 ft 0 kts 86°
2026-05-06 14:46 53.63205 10.00338 48 ft 3 kts 86°
2026-05-06 14:46 53.63204 10.00303 48 ft 3 kts 86°
2026-05-06 14:46 53.63202 10.00269 48 ft 3 kts 86°
2026-05-06 14:47 53.63201 10.00234 48 ft 3 kts 88°
2026-05-06 14:47 53.63205 10.00201 48 ft 3 kts 133°
2026-05-06 14:47 53.63222 10.00182 47 ft 3 kts 168°
2026-05-06 14:47 53.63234 10.00178 46 ft 0 kts 178°
2026-05-06 14:49 53.63233 10.00178 46 ft 1 kts 178°
2026-05-06 14:50 53.63198 10.00181 46 ft 7 kts 176°
2026-05-06 14:50 53.63137 10.00188 48 ft 10 kts 175°
2026-05-06 14:50 53.63065 10.00180 46 ft 11 kts 205°
2026-05-06 14:50 53.62995 10.00103 48 ft 13 kts 212°
2026-05-06 14:51 53.62976 10.00082 46 ft 0 kts 212°
2026-05-06 14:54 53.62963 10.00069 47 ft 7 kts 212°
2026-05-06 14:54 53.62921 9.99996 48 ft 10 kts 240°
2026-05-06 14:54 53.62886 9.99880 46 ft 13 kts 243°
2026-05-06 14:54 53.62875 9.99737 44 ft 14 kts 321°
2026-05-06 14:55 53.62910 9.99708 45 ft 0 kts 333°
2026-05-06 14:55 53.62912 9.99706 45 ft 1 kts 333°
2026-05-06 14:56 53.62982 9.99646 45 ft 33 kts 333°
2026-05-06 14:56 53.63376 9.99305 47 ft 93 kts 333°
2026-05-06 14:56 53.64125 9.98659 53 ft 146 kts 334°
2026-05-06 14:56 53.65097 9.97838 517 ft 156 kts 336°
2026-05-06 14:57 53.66062 9.97006 1310 ft 155 kts 338°
2026-05-06 14:57 53.67031 9.96180 1947 ft 160 kts 339°
2026-05-06 14:57 53.68089 9.95286 2314 ft 181 kts 339°
2026-05-06 14:57 53.69296 9.94268 2695 ft 206 kts 339°
2026-05-06 14:58 53.70589 9.93094 3439 ft 217 kts 330°
2026-05-06 14:58 53.71481 9.90956 4194 ft 237 kts 287°
2026-05-06 14:58 53.71496 9.88034 4677 ft 264 kts 259°
2026-05-06 14:58 53.70993 9.84981 5366 ft 279 kts 250°
2026-05-06 14:59 53.70298 9.81882 6225 ft 284 kts 248°
2026-05-06 14:59 53.69561 9.78765 6869 ft 286 kts 248°
2026-05-06 14:59 53.68841 9.75629 7495 ft 288 kts 249°
2026-05-06 14:59 53.68149 9.72445 8046 ft 290 kts 251°
2026-05-06 15:00 53.67496 9.69221 8436 ft 290 kts 255°
2026-05-06 15:00 53.67292 9.65850 8834 ft 290 kts 276°
2026-05-06 15:00 53.67782 9.62555 9727 ft 290 kts 295°
2026-05-06 15:00 53.68849 9.59613 10310 ft 304 kts 312°
2026-05-06 15:01 53.70541 9.57340 10704 ft 320 kts 333°
2026-05-06 15:01 53.72678 9.56209 11365 ft 327 kts 352°
2026-05-06 15:01 53.74949 9.55693 12079 ft 332 kts 353°
2026-05-06 15:01 53.77264 9.55168 12791 ft 338 kts 353°
2026-05-06 15:02 53.79614 9.54627 13509 ft 344 kts 352°
2026-05-06 15:02 53.82006 9.54068 14155 ft 349 kts 352°
2026-05-06 15:02 53.84428 9.53497 14820 ft 354 kts 352°
2026-05-06 15:02 53.86881 9.52916 15500 ft 358 kts 351°
2026-05-06 15:03 53.89335 9.52336 16214 ft 363 kts 351°
2026-05-06 15:03 53.91856 9.51742 16875 ft 368 kts 351°
2026-05-06 15:03 53.94404 9.51144 17519 ft 372 kts 351°
2026-05-06 15:03 53.96983 9.50541 18151 ft 376 kts 351°
2026-05-06 15:04 53.99562 9.49724 18704 ft 378 kts 343°
2026-05-06 15:04 54.02027 9.48154 19286 ft 379 kts 332°
2026-05-06 15:04 54.04326 9.45958 19883 ft 381 kts 327°
2026-05-06 15:04 54.06629 9.43670 20481 ft 384 kts 327°
2026-05-06 15:05 54.08944 9.41378 21060 ft 387 kts 327°
2026-05-06 15:05 54.11277 9.39075 21693 ft 390 kts 327°
2026-05-06 15:05 54.13636 9.36750 22328 ft 393 kts 327°
2026-05-06 15:05 54.16026 9.34399 22950 ft 397 kts 327°
2026-05-06 15:06 54.18415 9.32049 23499 ft 400 kts 327°
2026-05-06 15:06 54.20837 9.29660 23973 ft 403 kts 327°
2026-05-06 15:06 54.23273 9.27243 24436 ft 405 kts 327°
2026-05-06 15:06 54.25717 9.24807 24896 ft 408 kts 327°
2026-05-06 15:07 54.28177 9.22350 25355 ft 411 kts 327°
2026-05-06 15:07 54.30657 9.19872 25790 ft 414 kts 327°
2026-05-06 15:07 54.33151 9.17378 26236 ft 417 kts 327°
2026-05-06 15:07 54.35665 9.14863 26670 ft 419 kts 327°
2026-05-06 15:08 54.38298 9.12647 26883 ft 424 kts 336°
2026-05-06 15:08 54.41053 9.10838 26918 ft 424 kts 337°
2026-05-06 15:08 54.43810 9.09038 26919 ft 424 kts 336°
2026-05-06 15:08 54.46564 9.07234 26921 ft 424 kts 336°
2026-05-06 15:09 54.49333 9.05414 27220 ft 427 kts 336°
2026-05-06 15:09 54.52114 9.03575 27627 ft 429 kts 336°
2026-05-06 15:09 54.54904 9.01723 28037 ft 432 kts 336°
2026-05-06 15:09 54.57685 8.99876 28431 ft 435 kts 336°
2026-05-06 15:10 54.60507 8.97997 28835 ft 438 kts 336°
2026-05-06 15:10 54.63361 8.96090 29239 ft 441 kts 336°
2026-05-06 15:10 54.66236 8.94171 29636 ft 444 kts 336°
2026-05-06 15:10 54.69133 8.92236 30027 ft 448 kts 336°
2026-05-06 15:11 54.72044 8.90294 30383 ft 450 kts 336°
2026-05-06 15:11 54.74979 8.88340 30757 ft 452 kts 336°
2026-05-06 15:11 54.77920 8.86384 31131 ft 454 kts 336°
2026-05-06 15:11 54.80880 8.84408 31499 ft 456 kts 336°
2026-05-06 15:12 54.83836 8.82427 31961 ft 455 kts 335°
2026-05-06 15:12 54.86783 8.80442 32505 ft 453 kts 335°
2026-05-06 15:12 54.89710 8.78463 33054 ft 450 kts 335°
2026-05-06 15:12 54.92624 8.76494 33598 ft 448 kts 335°
2026-05-06 15:13 54.95528 8.74537 34110 ft 446 kts 335°
2026-05-06 15:13 54.98420 8.72588 34527 ft 446 kts 335°
2026-05-06 15:13 55.01312 8.70633 34904 ft 445 kts 335°
2026-05-06 15:13 55.04202 8.68671 35263 ft 445 kts 335°
2026-05-06 15:14 55.07048 8.66737 35600 ft 446 kts 335°
2026-05-06 15:14 55.09940 8.64771 35942 ft 446 kts 335°
2026-05-06 15:14 55.12827 8.62809 36267 ft 446 kts 334°
2026-05-06 15:14 55.15722 8.60839 36583 ft 446 kts 334°
2026-05-06 15:15 55.18608 8.58862 36898 ft 446 kts 334°
2026-05-06 15:15 55.21499 8.56873 37205 ft 446 kts 334°
2026-05-06 15:15 55.24396 8.54883 37504 ft 446 kts 334°
2026-05-06 15:15 55.27284 8.52905 37807 ft 446 kts 334°
2026-05-06 15:16 55.30184 8.50919 37940 ft 447 kts 334°
2026-05-06 15:16 55.35984 8.46933 37948 ft 448 kts 334°
2026-05-06 15:17 55.41780 8.42918 37948 ft 448 kts 334°
2026-05-06 15:17 55.47581 8.38894 37948 ft 447 kts 334°
2026-05-06 15:18 55.53371 8.34861 37949 ft 447 kts 334°
2026-05-06 15:18 55.59123 8.30845 37956 ft 447 kts 334°
2026-05-06 15:19 55.64890 8.26715 37962 ft 447 kts 333°
2026-05-06 15:19 55.70614 8.22435 37967 ft 446 kts 332°
2026-05-06 15:20 55.76344 8.18129 37970 ft 446 kts 332°
2026-05-06 15:20 55.82069 8.13842 37977 ft 447 kts 332°
2026-05-06 15:21 55.87796 8.09555 37986 ft 447 kts 333°
2026-05-06 15:21 55.93527 8.05271 37990 ft 447 kts 333°
2026-05-06 15:22 55.99261 8.00957 37995 ft 447 kts 332°
2026-05-06 15:22 56.04983 7.96622 38004 ft 447 kts 332°
2026-05-06 15:23 56.10703 7.92282 38002 ft 446 kts 332°
2026-05-06 15:23 56.16422 7.87956 38011 ft 446 kts 332°
2026-05-06 15:24 56.22094 7.83629 38013 ft 446 kts 332°
2026-05-06 15:24 56.27809 7.79247 38008 ft 445 kts 332°
2026-05-06 15:25 56.33502 7.74857 38006 ft 445 kts 332°
2026-05-06 15:25 56.39192 7.70463 38009 ft 445 kts 332°
2026-05-06 15:26 56.44883 7.66077 38021 ft 444 kts 332°
2026-05-06 15:26 56.50561 7.61700 38031 ft 442 kts 332°
2026-05-06 15:27 56.55247 7.58057 38032 ft 440 kts 332°
2026-05-06 15:27 56.60863 7.53660 38031 ft 439 kts 332°
2026-05-06 15:28 56.66471 7.49260 38030 ft 438 kts 331°
2026-05-06 15:28 56.72059 7.44878 38032 ft 438 kts 332°
2026-05-06 15:29 56.77654 7.40487 38033 ft 437 kts 331°
2026-05-06 15:29 56.83232 7.36079 38033 ft 437 kts 331°
2026-05-06 15:30 56.88768 7.31672 38028 ft 436 kts 331°
2026-05-06 15:30 56.94337 7.27245 38025 ft 436 kts 331°
2026-05-06 15:31 56.99916 7.22861 38029 ft 438 kts 335°
2026-05-06 15:31 57.05774 7.19540 38030 ft 441 kts 338°
2026-05-06 15:32 57.14585 7.14714 38034 ft 440 kts 338°
2026-05-06 15:32 57.20450 7.11483 38029 ft 440 kts 338°
2026-05-06 15:33 57.26316 7.08240 38030 ft 439 kts 338°
2026-05-06 15:33 57.32131 7.05008 38026 ft 439 kts 338°
2026-05-06 15:34 57.37977 7.01749 38016 ft 437 kts 338°
2026-05-06 15:34 57.40855 7.00139 38001 ft 426 kts 338°
2026-05-06 15:34 57.43667 6.98565 38002 ft 415 kts 337°
2026-05-06 15:35 57.49095 6.95521 38004 ft 403 kts 337°
2026-05-06 15:35 57.54446 6.92486 38006 ft 401 kts 337°
2026-05-06 15:36 57.59788 6.89463 38004 ft 401 kts 337°
2026-05-06 15:36 57.65097 6.86451 38005 ft 401 kts 337°
2026-05-06 15:37 57.70439 6.83440 38003 ft 401 kts 337°
2026-05-06 15:37 57.75776 6.80388 38000 ft 401 kts 337°
2026-05-06 15:38 57.81104 6.77332 37999 ft 400 kts 337°
2026-05-06 15:38 57.86438 6.74270 37998 ft 400 kts 337°
2026-05-06 15:39 57.91766 6.71205 37998 ft 400 kts 337°
2026-05-06 15:39 57.97094 6.68126 37994 ft 401 kts 337°
2026-05-06 15:40 58.02429 6.65036 37993 ft 401 kts 337°
2026-05-06 15:40 58.07733 6.61958 37991 ft 402 kts 337°
2026-05-06 15:41 58.13086 6.58839 37998 ft 402 kts 336°
2026-05-06 15:41 58.18427 6.55699 37816 ft 402 kts 336°
2026-05-06 15:42 58.21099 6.54135 37550 ft 402 kts 336°
2026-05-06 15:42 58.23773 6.52569 37290 ft 403 kts 336°
2026-05-06 15:42 58.26449 6.51005 37008 ft 402 kts 336°
2026-05-06 15:42 58.29114 6.49447 36620 ft 400 kts 336°
2026-05-06 15:43 58.31772 6.47883 36244 ft 399 kts 336°
2026-05-06 15:43 58.34410 6.46325 35878 ft 397 kts 335°
2026-05-06 15:43 58.37041 6.44765 35508 ft 395 kts 335°
2026-05-06 15:43 58.39652 6.43210 35151 ft 393 kts 335°
2026-05-06 15:44 58.42258 6.41658 34806 ft 391 kts 335°
2026-05-06 15:44 58.44848 6.40120 34460 ft 390 kts 334°
2026-05-06 15:44 58.47437 6.38582 34114 ft 389 kts 334°
2026-05-06 15:44 58.49981 6.37056 33725 ft 388 kts 334°
2026-05-06 15:45 58.52546 6.35512 33316 ft 386 kts 334°
2026-05-06 15:45 58.55110 6.33973 32908 ft 385 kts 334°
2026-05-06 15:45 58.57653 6.32446 32512 ft 384 kts 334°
2026-05-06 15:45 58.60201 6.30923 32122 ft 383 kts 334°
2026-05-06 15:46 58.62747 6.29401 31730 ft 383 kts 334°
2026-05-06 15:46 58.65285 6.27875 31345 ft 382 kts 334°
2026-05-06 15:46 58.67812 6.26349 31067 ft 378 kts 334°
2026-05-06 15:46 58.70305 6.24850 30817 ft 374 kts 334°
2026-05-06 15:47 58.72769 6.23374 30569 ft 369 kts 333°
2026-05-06 15:47 58.75208 6.21912 30330 ft 365 kts 333°
2026-05-06 15:47 58.77618 6.20459 30085 ft 360 kts 333°
2026-05-06 15:47 58.79990 6.19021 29800 ft 355 kts 333°
2026-05-06 15:48 58.82331 6.17593 29509 ft 350 kts 333°
2026-05-06 15:48 58.84631 6.16190 29226 ft 345 kts 332°
2026-05-06 15:48 58.86876 6.14812 28950 ft 341 kts 332°
2026-05-06 15:48 58.89127 6.13429 28665 ft 338 kts 332°
2026-05-06 15:49 58.91365 6.12058 28348 ft 336 kts 332°
2026-05-06 15:49 58.93583 6.10701 28072 ft 331 kts 332°
2026-05-06 15:49 58.95769 6.09358 27806 ft 328 kts 332°
2026-05-06 15:49 58.97938 6.08028 27536 ft 325 kts 332°
2026-05-06 15:50 59.00084 6.06711 27261 ft 321 kts 332°
2026-05-06 15:50 59.02203 6.05407 27013 ft 318 kts 332°
2026-05-06 15:50 59.04296 6.04120 26744 ft 314 kts 332°
2026-05-06 15:50 59.06366 6.02843 26480 ft 310 kts 332°
2026-05-06 15:51 59.08465 6.01823 26220 ft 313 kts 339°
2026-05-06 15:51 59.10586 6.01022 25965 ft 309 kts 338°
2026-05-06 15:51 59.12661 6.00234 25713 ft 305 kts 338°
2026-05-06 15:51 59.14732 5.99447 25457 ft 302 kts 338°
2026-05-06 15:52 59.16785 5.98668 25212 ft 299 kts 338°
2026-05-06 15:52 59.18814 5.97895 24963 ft 296 kts 338°
2026-05-06 15:52 59.20828 5.97129 24721 ft 293 kts 338°
2026-05-06 15:52 59.22825 5.96370 24480 ft 291 kts 338°
2026-05-06 15:53 59.24804 5.95615 24237 ft 288 kts 338°
2026-05-06 15:53 59.26767 5.94861 23996 ft 286 kts 338°
2026-05-06 15:53 59.28714 5.94118 23762 ft 284 kts 338°
2026-05-06 15:53 59.30639 5.93384 23515 ft 281 kts 338°
2026-05-06 15:54 59.32550 5.92658 23231 ft 278 kts 338°
2026-05-06 15:54 59.34440 5.91933 22950 ft 275 kts 338°
2026-05-06 15:54 59.36309 5.91213 22679 ft 273 kts 338°
2026-05-06 15:54 59.38165 5.90499 22395 ft 270 kts 338°
2026-05-06 15:55 59.40005 5.89788 22122 ft 268 kts 338°
2026-05-06 15:55 59.41826 5.89080 21851 ft 266 kts 338°
2026-05-06 15:55 59.43653 5.88461 21583 ft 269 kts 342°
2026-05-06 15:55 59.45498 5.88151 21321 ft 269 kts 344°
2026-05-06 15:56 59.47357 5.87851 21056 ft 268 kts 344°
2026-05-06 15:56 59.49211 5.87547 20792 ft 266 kts 344°
2026-05-06 15:56 59.51053 5.87245 20534 ft 266 kts 344°
2026-05-06 15:56 59.52904 5.86938 20277 ft 267 kts 344°
2026-05-06 15:57 59.54750 5.86630 20038 ft 264 kts 344°
2026-05-06 15:57 59.56569 5.86331 19851 ft 260 kts 344°
2026-05-06 15:57 59.58367 5.86042 19610 ft 258 kts 343°
2026-05-06 15:57 59.60157 5.85754 19366 ft 257 kts 343°
2026-05-06 15:58 59.61932 5.85458 19127 ft 256 kts 344°
2026-05-06 15:58 59.63709 5.85162 18805 ft 255 kts 344°
2026-05-06 15:58 59.65481 5.84864 18542 ft 255 kts 344°
2026-05-06 15:58 59.67225 5.84574 18290 ft 255 kts 343°
2026-05-06 15:59 59.68991 5.84287 18023 ft 254 kts 344°
2026-05-06 15:59 59.70743 5.84001 17786 ft 252 kts 344°
2026-05-06 15:59 59.72489 5.83714 17520 ft 251 kts 344°
2026-05-06 15:59 59.74226 5.83431 17260 ft 250 kts 344°
2026-05-06 16:00 59.75953 5.83144 16995 ft 248 kts 345°
2026-05-06 16:00 59.77665 5.82859 16767 ft 246 kts 345°
2026-05-06 16:00 59.79367 5.82574 16500 ft 245 kts 345°
2026-05-06 16:00 59.81063 5.82294 16256 ft 244 kts 345°
2026-05-06 16:01 59.82737 5.81922 15996 ft 239 kts 339°
2026-05-06 16:01 59.84362 5.81326 15753 ft 237 kts 340°
2026-05-06 16:01 59.85986 5.80740 15520 ft 237 kts 340°
2026-05-06 16:01 59.87602 5.80164 15313 ft 235 kts 340°
2026-05-06 16:02 59.89187 5.79596 15121 ft 234 kts 340°
2026-05-06 16:02 59.90784 5.79026 14928 ft 233 kts 340°
2026-05-06 16:02 59.92375 5.78458 14696 ft 232 kts 341°
2026-05-06 16:02 59.93957 5.77889 14446 ft 231 kts 341°
2026-05-06 16:03 59.95531 5.77317 14212 ft 229 kts 341°
2026-05-06 16:03 59.97098 5.76753 13970 ft 228 kts 341°
2026-05-06 16:03 59.98655 5.76194 13717 ft 227 kts 342°
2026-05-06 16:03 60.00207 5.75631 13461 ft 226 kts 342°
2026-05-06 16:04 60.01755 5.75067 13149 ft 226 kts 342°
2026-05-06 16:04 60.03295 5.74508 12895 ft 225 kts 343°
2026-05-06 16:04 60.04832 5.73950 12612 ft 224 kts 343°
2026-05-06 16:04 60.06362 5.73399 12327 ft 223 kts 343°
2026-05-06 16:05 60.07879 5.72848 12072 ft 221 kts 344°
2026-05-06 16:05 60.09401 5.72295 12037 ft 223 kts 344°
2026-05-06 16:05 60.10927 5.71739 12041 ft 224 kts 344°
2026-05-06 16:05 60.12460 5.71183 12047 ft 224 kts 344°
2026-05-06 16:06 60.14013 5.70822 12031 ft 229 kts
2026-05-06 16:06 60.15501 5.72072 12040 ft 242 kts 37°
2026-05-06 16:06 60.16415 5.74923 12041 ft 250 kts 74°
2026-05-06 16:06 60.16378 5.78365 12039 ft 250 kts 112°
2026-05-06 16:07 60.15407 5.81107 12036 ft 243 kts 149°
2026-05-06 16:07 60.13885 5.82293 12043 ft 234 kts 179°
2026-05-06 16:07 60.12265 5.82710 12038 ft 235 kts 178°
2026-05-06 16:07 60.10640 5.83152 12032 ft 235 kts 178°
2026-05-06 16:08 60.09018 5.83606 12034 ft 236 kts 178°
2026-05-06 16:08 60.07389 5.83962 12026 ft 232 kts 188°
2026-05-06 16:08 60.05913 5.83026 12035 ft 219 kts 220°
2026-05-06 16:08 60.04937 5.80819 12039 ft 211 kts 248°
2026-05-06 16:09 60.04640 5.78012 12038 ft 207 kts 275°
2026-05-06 16:09 60.05058 5.75284 12040 ft 209 kts 301°
2026-05-06 16:09 60.06088 5.73276 12036 ft 215 kts 327°
2026-05-06 16:09 60.07544 5.72434 12043 ft 223 kts 347°
2026-05-06 16:10 60.09086 5.71997 12040 ft 224 kts 347°
2026-05-06 16:10 60.10627 5.71577 12043 ft 224 kts 347°
2026-05-06 16:10 60.12174 5.71160 12044 ft 224 kts 347°
2026-05-06 16:10 60.13724 5.70824 12035 ft 227 kts 356°
2026-05-06 16:11 60.15253 5.71782 12038 ft 239 kts 31°
2026-05-06 16:11 60.16313 5.74380 12042 ft 248 kts 67°
2026-05-06 16:11 60.16478 5.77816 11856 ft 251 kts 105°
2026-05-06 16:11 60.15640 5.80770 11592 ft 244 kts 142°
2026-05-06 16:12 60.14180 5.82244 11328 ft 232 kts 175°
2026-05-06 16:12 60.12583 5.82667 11066 ft 231 kts 177°
2026-05-06 16:12 60.10985 5.83095 10802 ft 232 kts 176°
2026-05-06 16:12 60.09390 5.83540 10538 ft 231 kts 175°
2026-05-06 16:13 60.07825 5.83970 10292 ft 229 kts 178°
2026-05-06 16:13 60.06286 5.83486 10075 ft 219 kts 210°
2026-05-06 16:13 60.05162 5.81598 10037 ft 214 kts 238°
2026-05-06 16:13 60.04638 5.78872 10040 ft 211 kts 266°
2026-05-06 16:14 60.04853 5.75996 10040 ft 211 kts 294°
2026-05-06 16:14 60.05755 5.73709 10045 ft 214 kts 322°
2026-05-06 16:14 60.07128 5.72563 10042 ft 218 kts 348°
2026-05-06 16:14 60.08633 5.72104 10043 ft 219 kts 349°
2026-05-06 16:15 60.10149 5.71685 10040 ft 220 kts 350°
2026-05-06 16:15 60.11666 5.71273 10046 ft 220 kts 350°
2026-05-06 16:15 60.13185 5.70862 10045 ft 220 kts 349°
2026-05-06 16:15 60.14699 5.70447 10046 ft 220 kts 349°
2026-05-06 16:16 60.16197 5.70034 10048 ft 220 kts 349°
2026-05-06 16:16 60.17732 5.69609 10048 ft 220 kts 349°
2026-05-06 16:16 60.19239 5.69191 9830 ft 222 kts 349°
2026-05-06 16:16 60.20761 5.68768 9555 ft 220 kts 349°
2026-05-06 16:17 60.22272 5.68349 9277 ft 219 kts 349°
2026-05-06 16:17 60.23776 5.67931 9002 ft 218 kts 349°
2026-05-06 16:17 60.25274 5.67511 8729 ft 217 kts 349°
2026-05-06 16:17 60.26765 5.67089 8460 ft 216 kts 349°
2026-05-06 16:18 60.28256 5.66669 8190 ft 215 kts 349°
2026-05-06 16:18 60.29731 5.66256 8056 ft 214 kts 349°
2026-05-06 16:18 60.31202 5.65837 8045 ft 213 kts 349°
2026-05-06 16:18 60.32674 5.65419 8045 ft 213 kts 349°
2026-05-06 16:19 60.34149 5.65003 8047 ft 214 kts 349°
2026-05-06 16:19 60.35619 5.64585 8017 ft 214 kts 349°
2026-05-06 16:19 60.37088 5.64165 7883 ft 213 kts 349°
2026-05-06 16:19 60.38557 5.63748 7747 ft 213 kts 349°
2026-05-06 16:20 60.40021 5.63336 7615 ft 213 kts 349°
2026-05-06 16:20 60.41488 5.62925 7478 ft 212 kts 349°
2026-05-06 16:20 60.42949 5.62511 7312 ft 213 kts 349°
2026-05-06 16:20 60.44323 5.61679 7053 ft 207 kts 327°
2026-05-06 16:21 60.45335 5.59696 6796 ft 203 kts 299°
2026-05-06 16:21 60.45864 5.57033 6537 ft 201 kts 288°
2026-05-06 16:21 60.46318 5.54389 6279 ft 201 kts 288°
2026-05-06 16:21 60.46771 5.51727 6003 ft 200 kts 288°
2026-05-06 16:22 60.47228 5.49065 5734 ft 200 kts 288°
2026-05-06 16:22 60.47683 5.46400 5475 ft 200 kts 288°
2026-05-06 16:22 60.48136 5.43733 5203 ft 200 kts 288°
2026-05-06 16:22 60.48587 5.41086 4942 ft 198 kts 288°
2026-05-06 16:23 60.49037 5.38453 4679 ft 197 kts 289°
2026-05-06 16:23 60.49486 5.35831 4415 ft 196 kts 289°
2026-05-06 16:23 60.49931 5.33224 4141 ft 195 kts 289°
2026-05-06 16:23 60.50252 5.30560 3877 ft 195 kts 276°
2026-05-06 16:24 60.50286 5.28751 3735 ft 193 kts 268°
2026-05-06 16:24 60.50075 5.26067 3558 ft 193 kts 255°
2026-05-06 16:24 60.49560 5.23557 3374 ft 194 kts 242°
2026-05-06 16:24 60.48884 5.21180 3186 ft 194 kts 242°
2026-05-06 16:25 60.48218 5.18801 3063 ft 194 kts 242°
2026-05-06 16:25 60.47312 5.16813 3006 ft 197 kts 211°
2026-05-06 16:25 60.45972 5.16205 3007 ft 204 kts 176°
2026-05-06 16:25 60.44579 5.16767 2995 ft 199 kts 173°
2026-05-06 16:26 60.43236 5.17169 2858 ft 193 kts 173°
2026-05-06 16:26 60.41943 5.17576 2630 ft 187 kts 173°
2026-05-06 16:26 60.40710 5.17986 2383 ft 175 kts 173°
2026-05-06 16:26 60.39542 5.18378 2137 ft 165 kts 173°
2026-05-06 16:27 60.38461 5.18743 1928 ft 149 kts 173°
2026-05-06 16:27 60.37490 5.19070 1716 ft 137 kts 174°
2026-05-06 16:27 60.36565 5.19380 1530 ft 133 kts 174°
2026-05-06 16:27 60.35658 5.19684 1347 ft 131 kts 174°
2026-05-06 16:28 60.34744 5.19980 1128 ft 133 kts 173°
2026-05-06 16:28 60.33836 5.20282 934 ft 132 kts 174°
2026-05-06 16:28 60.32933 5.20610 774 ft 131 kts 173°
2026-05-06 16:28 60.32042 5.20909 508 ft 127 kts 172°
2026-05-06 16:29 60.31179 5.21212 356 ft 126 kts 173°
2026-05-06 16:29 60.30310 5.21508 201 ft 124 kts 173°
2026-05-06 16:29 60.29534 5.21747 149 ft 94 kts 171°
2026-05-06 16:29 60.29034 5.21917 162 ft 47 kts 170°
2026-05-06 16:30 60.28763 5.22006 163 ft 35 kts 171°
2026-05-06 16:30 60.28671 5.22084 161 ft 16 kts 117°
2026-05-06 16:30 60.28678 5.22265 165 ft 0 kts 79°
2026-05-06 16:31 60.28679 5.22272 165 ft 2 kts 79°
2026-05-06 16:32 60.28684 5.22309 167 ft 6 kts 64°
2026-05-06 16:32 60.28730 5.22341 169 ft 9 kts 354°
2026-05-06 16:32 60.28795 5.22348 172 ft 9 kts 33°
2026-05-06 16:32 60.28836 5.22422 175 ft 8 kts 12°
2026-05-06 16:33 60.28896 5.22438 175 ft 8 kts 46°
2026-05-06 16:33 60.28897 5.22540 175 ft 3 kts 86°
2026-05-06 16:33 60.28897 5.22543 175 ft 0 kts 85°